This demonstration page uses our WeatherBlox Daily Observations layout. Learn more.

Left ArrowRight Arrow

Hourly Observations for October 24, 2019

Temp ( °F °C ) Dew Point ( °F °C ) Humidity (%) Winds ( mph kmh ) Pressure ( in mb ) Visibility ( mi km ) Precip ( " mm )
12:53 am 00:53 Clear 44 6.7 42 5.6 93 93 Calm 30.20 1023 10 16 0.00 0.00
1:53 am 01:53 Clear 44 6.7 41 5 89 89 Calm 30.20 1023 10 16 0.00 0.00
2:53 am 02:53 Clear 43 6.1 41 5 93 93 Calm 30.20 1023 10 16 0.00 0.00
3:53 am 03:53 Clear 42 5.6 40 4.4 92 92 Calm 30.20 1023 10 16 0.00 0.00
4:53 am 04:53 Clear 41 5 39 3.9 93 93 Calm 30.22 1023 10 16 0.00 0.00
5:53 am 05:53 Clear 41 5 38 3.3 89 89 N 3 6 30.23 1024 10 16 0.00 0.00
6:53 am 06:53 Clear 41 5 39 3.9 93 93 Calm 30.24 1024 10 16 0.00 0.00
7:53 am 07:53 Sunny 41 5 39 3.9 93 93 Calm 30.25 1024 10 16 0.00 0.00
8:53 am 08:53 Sunny 47 8.3 43 6.1 86 86 Calm 30.26 1025 10 16 0.00 0.00
9:53 am 09:53 Sunny 54 12.2 45 7.2 72 72 NNE 3 6 30.28 1025 10 16 0.00 0.00
10:53 am 10:53 Sunny 61 16.1 43 6.1 52 52 ENE 7 11 30.28 1025 10 16 0.00 0.00
11:53 am 11:53 Sunny 66 18.9 43 6.1 43 43 VRB 6 9 30.27 1025 10 16 0.00 0.00
12:53 pm 12:53 Sunny 69 20.6 42 5.6 38 38 ENE 6 9 30.25 1025 10 16 0.00 0.00
1:53 pm 13:53 Sunny 71 21.7 42 5.6 35 35 E 9 15 30.22 1023 10 16 0.00 0.00
2:53 pm 14:53 Sunny 69 20.6 40 4.4 35 35 SE 8 13 30.20 1023 10 16 0.00 0.00
3:53 pm 15:53 Sunny 69 20.6 41 5 36 36 VRB 5 7 30.19 1022 10 16 0.00 0.00
4:53 pm 16:53 Sunny 69 20.6 42 5.6 38 38 VRB 3 6 30.18 1022 10 16 0.00 0.00
5:53 pm 17:53 Sunny 68 20 43 6.1 40 40 E 3 6 30.19 1022 10 16 0.00 0.00
6:53 pm 18:53 Sunny 64 17.8 48 8.9 56 56 Calm 30.21 1023 10 16 0.00 0.00
7:53 pm 19:53 Clear 60 15.6 49 9.4 67 67 Calm 30.22 1023 10 16 0.00 0.00
8:53 pm 20:53 Mostly Cloudy 61 16.1 50 10 67 67 Calm 30.22 1024 10 16 0.00 0.00
9:53 pm 21:53 Mostly Cloudy 61 16.1 49 9.4 65 65 NE 3 6 30.23 1024 10 16 0.00 0.00
10:53 pm 22:53 Mostly Cloudy 59 15 49 9.4 69 69 NNE 5 7 30.24 1024 10 16 0.00 0.00
11:53 pm 23:53 Mostly Clear 59 15 48 8.9 67 67 NNE 5 7 30.22 1024 10 16 0.00 0.00

Powered by AerisWeather